IRIDIUM 128

Last updated on Tue Sep 22 2026 00:03:21 GMT+0000 (Coordinated Universal Time)

1 42811U 17039J 26264.48970740 -.00000036 00000+0 -19917-4 0 9996 2 42811 86.4015 344.9103 0001983 95.0020 265.1403 14.34217439483782
UTC large
Height (km)
Speed (km/s)
/
Latitude / Longitude
Inclination (degrees)
Orbital Period (minutes)
Azimuth
Elevation
Range (km)
Doppler Factor

Next 0 passes for location: London (51.5072 / 0.1276)

No passes found over London.
IRIDIUM 128